Location: Kerberlivit
(48.2787°N, 4.5413°W)
Time: 04:43:35
(UTC+00:00)

NOSS 2-1 (C) - Pass Details

Date: 18 February 2020
Orbit: 450 x 1753 km, 63.3° (Epoch: 28 March)

Event Time Altitude Azimuth Distance (km) Brightness Sun altitude
Exits shadow 05:15:24 44° 355° (N) 672 3.7 -21.5°
Drops below altitude 10° 05:18:27 10° 34° (NE) 1,772 6.4 -21.0°
Sets 05:20:54 0° 40° (NE) 2,799 7.6 -20.6°
